Location: *
(58.4167°N, 22.5000°E)
Time: 06:17:04
(UTC+00:00)

MOS 1 Rocket - Pass Details

Date: 22 September 2019
Orbit: 614 x 831 km, 97.4° (Epoch: 19 October)

Event Time Altitude Azimuth Distance (km) Brightness Sun altitude
Rises 19:29:20 0° 17° (NNE) 3,304 7.1 -22.2°
Reaches altitude 10° 19:31:56 10° 27° (NNE) 2,339 6.2 -22.5°
Enters shadow 19:35:43 32° 69° (ENE) 1,273 4.4 -22.8°
